{"data":{"norad_id":69234,"intl_designator":"2026-115Z","name":"STARLINK-37755","alt_names":[],"object_type":"PAYLOAD","status":"ACTIVE","operator":null,"country":"US","launch_date":"2026-05-26","launch_site_code":"AFWTR","launch_vehicle":null,"mission":null,"orbit_class":"UNKNOWN","rcs_meters":null,"size_class":null,"mass_kg":null,"dimensions":null,"purposes":["comms"],"wikipedia_slug":null,"has_3d_model":false,"image_url":null,"decayed_at":null,"tle_current":{"epoch":"2026-09-20T00:44:27.617280Z","epoch_age_seconds":67566,"freshness":"FRESH","line1":"1 69234U 26115Z   26263.03087520  .00010872  00000+0  33851-3 0  9993","line2":"2 69234  97.2845 279.9688 0001764  85.4897 274.6547 15.33451874 19274","mean_motion":15.33451874,"eccentricity":0.0001764,"inclination_deg":97.2845,"raan_deg":279.9688,"arg_perigee_deg":85.4897,"mean_anomaly_deg":274.6547,"bstar":0.00033851,"rev_number":1927,"period_min":93.90578370378,"perigee_km":464.31550079178,"apogee_km":466.72994394183,"semimajor_km":6843.6597223668,"source":"CELESTRAK","updated_at":"2026-09-20T09:00:44.106475Z"}}}